User: anonymous   Login
Location: ??
(34.9170°N, 135.5016°E)
Time: 14:01:57
(UTC+00:00)
Language:

Nadezhda 4 Rocket - Orbit

View from above orbital plane
View from above orbital plane
View from above satellite
View from above satellite

Ground track
Ground track

The orbit data is extracted from the following two-line orbital elements,

1 23180U 94041B   21016.82531715  .00000117  00000-0  10042-3 0  9993
2 23180  82.9452  36.4775 0029656 150.1408  23.2228 13.77987068333009
Epoch (UTC): 16 January 2021 19:48:27
Eccentricity: 0.0029656
inclination: 82.9452°
perigee height: 949 km
apogee height: 993 km
right ascension of ascending node: 36.4775°
argument of perigee: 150.1408°
revolutions per day: 13.77987068
mean anomaly at epoch: 23.2228°
orbit number at epoch: 33300

The dashed part of the orbit path shows where the satellite is in the earth's shadow,  

DLR